sat.trackr.live / text

‹ back to catalog

SHERPA-FX2 & TAGSAT-2

NORAD 48958 · 2021-059CH

PAYLOAD ACTIVE UNKNOWN

§ Identity

Operator
Country
US
Launch date
2021-06-30
Launch site
AFETR
Launch vehicle
Mass (kg)
RCS (m²)

External: N2YO · Heavens-Above · Gunter

§ Orbital elements

Epoch: 2026-09-20T13:23:16.900800Z

Period
92.32 min
Inclination
97.6785°
Eccentricity
0.0005634
Mean motion
15.59816122 rev/d
Perigee alt
384.4 km
Apogee alt
392.0 km
Semi-major
6,766.3 km
B*
2.3354e-4
RAAN
105.0332°
Arg perigee
359.1123°
Mean anomaly
1.0122°
Rev number
29,227

§ Raw data

SHERPA-FX2 & TAGSAT-21 48958U 21059CH  26263.55783450  .00018642  00000+0  23354-3 0  99972 48958  97.6785 105.0332 0005634 359.1123   1.0122 15.59816122292272

JSON: /api/v1/satellites/48958 · /tle

For live sub-satellite position, see the globe view (requires WebGL).

§ Visibility from observer

Set your observer location to see the next 7 days of passes ≥ 10°. The values pass through the URL so the page stays shareable.

No JS? Fill the form by hand. The geolocation button needs JavaScript.